Location: Seattle
(47.6064°N, 122.3308°W)
Time: 20:40:12
(UTC-07:00)

STARS - Visible Passes

Search period start: 28 March 2023 00:00
Search period end: 07 April 2023 00:00
Orbit: 616 x 633 km, 98.1° (Epoch: 28 March)

Date Brightness Start Highest point End Pass type
(mag) Time Alt. Az. Time Alt. Az. Time Alt. Az.
28 Mar ? 01:01:51 10° N 01:02:07 11° N 01:02:07 11° N visible
29 Mar ? 01:20:46 10° N 01:21:08 12° N 01:21:08 12° N visible
30 Mar ? 01:39:48 10° NNW 01:40:08 12° NNW 01:40:08 12° NNW visible
31 Mar ? 00:21:38 10° NNE 00:21:52 11° NNE 00:21:52 11° NNE visible
31 Mar ? 01:59:02 10° NNW 01:59:08 10° NNW 01:59:08 10° NNW visible
01 Apr ? 00:40:17 10° NNE 00:40:52 14° NNE 00:40:52 14° NNE visible
02 Apr ? 00:59:01 10° N 00:59:50 15° N 00:59:50 15° N visible
03 Apr ? 01:17:51 10° N 01:18:49 16° N 01:18:49 16° N visible
04 Apr ? 00:00:13 10° NNE 00:00:30 12° NNE 00:00:30 12° NNE visible
04 Apr ? 01:36:48 10° N 01:37:46 15° NNW 01:37:46 15° NNW visible
05 Apr ? 00:18:42 10° NNE 00:19:28 15° NNE 00:19:28 15° NNE visible
05 Apr ? 01:55:57 10° NNW 01:56:43 13° NNW 01:56:43 13° NNW visible
06 Apr ? 00:37:17 10° NNE 00:38:24 18° NNE 00:38:24 18° NNE visible
06 Apr ? 02:15:32 10° NW 02:15:40 10° NW 02:15:40 10° NW visible
